Snel-info
Kleurcode:
Groen
Er mag gevlogen worden.
Laatste update: 21/02/2017
Kleurcode informatie

Grasmaaien:

Geen maaibeurten gepland.

Volgende vliegdagen:

(geen extra vliegdagen gevonden)
Alle extra vliegdagen

Weersituatie op PMF:

5_Jets_over_Pampa_2013_070_DirkVL.JPG

Huidige weersituatie

Huidig weerbeeld in Kleine Brogel, Belgium
Huidige wind in Kleine Brogel, Belgium

Dit is het bericht voor Kleine Brogel, Belgium en werd 36 minuten geleden gemaakt.
De wind waaide met een snelheid van 1.0 meter per seconde (3.7 km/h) uit verschillende richtingen..
De temperatuur was 4 °C. De atmosferische druk was 1017 hPa. De relative luchtvochtigheid was 86.8%.
Het was licht bewolkt op een hoogte van 7620 meter. Het algemene zicht was meer dan 10 kilometer.

De onbewerkte METAR gegevens waarop dit bericht is gebaseerd zijn:
EBBL 270625Z VRB02KT 9999 FEW250 04/02 Q1017 BLU BLU


Opmerking:
De wind blijkt op PMF meestal iets krachtiger te waaien dan op Kleine Brogel. De windrichting klopt dan weer wel.




KMI

De weersvoorspellingen van het KMI vind je via deze link.


Buienradar

Op www.buienradar.nl kun je zelf zien waar het nu en de komende uren regent.